www.pogodaiklimat.ru

Погода и климат >> Архив погоды >> Россия >> Чечня >> Гудермес


АРХИВ ПОГОДЫ в Гудермесе

Время (UTC), дата Ветер
(напр.,м/с)
 
Видим.   Явления Облачность Т
(С)
Тd
(С)
f
(%)
Тe
(С)
Тes
(С)
Комфортность P
(гПа)
Po
(гПа)
Тmin
(С)
Tmax
(С)
R
(мм)
R24
(мм)
S
(см)
00 18.06 З 2 10 км {ливн. осадки} 10/0
[Ac As]
+21.0 +16.2 74 +25 +25 комфорт 1010.6 1001.9
03 18.06 СВ 1 20 км 9/0
[Ac trans]
+13.2 +11.6 90 +13 +14 1010.8 858.5 +11.1 1
06 18.06 ЮЗ 1 20 км 6/0
[Ac lent]
+27.2 +16.9 53 +31 +39 душно 1010.6 1002.1
09 18.06 С 2 20 км 6/3 600 м
[Cu med, cong Ci fib]
+31.9 +15.3 37 +34 +47 душно 1009.6 1001.2
12 18.06 СВ 4 20 км 5/5 600 м
[Cu med, cong]
+33.0 +12.6 29 +33 +38 жарко 1008.4 1000.0
15 18.06 В 4
{10}
20 км 3/0
[Ac lent]
+31.8 +10.6 27 +32 +32 жарко 1008.3 999.9 +34.2
18 18.06 ЮВ 1 10 км ясно +25.4 +12.1 43 +27 +27 жарко 1009.8 1001.1
21 18.06 З 2 10 км ясно +21.0 +15.2 69 +25 +25 комфорт 1009.5 1000.8
00 19.06 ЮЗ 2 10 км 3/0
[Ac lent]
+22.4 +14.9 63 +26 +26 жарко 1009.1 1000.4
03 19.06 З 3 20 км ясно +23.8 +15.0 58 +27 +28 жарко 1009.3 1000.7 +19.4
06 19.06 З 2 20 км ясно +28.6 +15.6 45 +31 +44 жарко 1009.2 1000.7
09 19.06 В 3 20 км ясно +34.7 +11.0 24 +34 +51 опасность
солнечного
удара
1007.9 999.6
12 19.06 В 5-10
{10}
20 км 3/0
[Ac cast Ci fib]
+35.0 +8.6 20 +33 +39 жарко 1007.4 999.1
15 19.06 В 6
{10}
20 км 3/0
[Ac lent]
+31.3 +10.5 28 +31 +32 жарко 1007.6 999.1 +36.4
18 19.06 ЮВ 1 10 км ясно +24.3 +10.1 41 +25 +25 комфорт 1009.1 1000.5
21 19.06 С 1 10 км ясно +21.8 +12.2 54 +24 +24 комфорт 1008.3 999.6
00 20.06 ЮВ 1 10 км ясно +18.9 +13.4 70 +21 +21 комфорт 1008.0 999.2
03 20.06 СЗ 1 20 км 3/0
[Ci fib]
+21.7 +14.0 62 +25 +27 комфорт 1008.3 999.6 +17.9
06 20.06 СЗ 1 20 км 3/0
[Ac cast]
+28.6 +15.1 44 +31 +43 жарко 1008.6 1000.1
09 20.06 В 3 20 км 6/0
[Cc]
+35.0 +12.8 26 +35 +50 очень
жарко
1007.2 998.9
12 20.06 В 4 20 км 9/0
[Ac As]
+33.0 +8.7 22 +32 +35 жарко 1007.1 998.7
15 20.06 З 3 20 км 9/5 600 м
[Cb cap Ac inh]
+28.3 +17.8 53 +33 +33 очень
душно
1008.4 999.9 +35.8
18 20.06 ЮЗ 2 10 км 9/5 600 м
[Cb cap Ac inh]
+25.5 +16.4 57 +29 +29 душно 1009.0 1000.4
21 20.06 З 1 10 км 9/0
[Ac As]
+23.2 +18.0 73 +29 +29 душно 1008.5 999.9
00 21.06 штиль 0 10 км 9/0
[Ac As]
+21.0 +17.7 81 +25 +25 комфорт 1009.1 1000.4
03 21.06 ЮЗ 2 20 км 9/6 1000 м
[Sc Ac lent]
+22.6 +16.0 66 +27 +27 душно 1010.8 1002.0 +20.8
06 21.06 З 3 20 км 9/0
[Ac inh]
+25.8 +17.4 60 +30 +34 душно 1011.5 1002.9
09 21.06 З 1 20 км в посл. час ливневой дождь 10/10 600 м
[Cb cap]
+25.6 +18.4 64 +30 +30 душно 1011.4 1002.8
12 21.06 штиль 0 20 км 10/10 1000 м
[Sc diur, vesp]
+27.4 +14.5 45 +30 +30 жарко 1011.5 1003.0
15 21.06 ЮЗ 2 20 км 10/10 1000 м
[Sc]
+26.7 +16.3 53 +30 +30 душно 1011.8 1003.2 +27.5 0.4
18 21.06 ЮЗ 1 10 км 8/0
[Ac trans]
+24.6 +16.5 61 +28 +28 душно 1012.5 1003.9
21 21.06 З 3 10 км 9/0
[Ac trans]
+23.7 +17.5 68 +28 +28 душно 1012.2 1003.6
00 22.06 З 2 10 км 5/0
[Ac lent]
+22.6 +16.8 70 +27 +27 душно 1012.1 1003.4
03 22.06 З 2 20 км 5/0
[Ac cast]
+20.6 +16.2 76 +24 +26 комфорт 1012.9 1004.2 +19.2
06 22.06 З 1 20 км 4/0
[Ac cast]
+27.9 +16.8 51 +32 +42 душно 1012.9 1004.4
09 22.06 В 3 20 км ясно +32.6 +13.9 32 +34 +50 очень
жарко
1011.3 1002.9
12 22.06 В 5-10
{11}
20 км 8/0
[Ci]
+35.8 +10.3 21 +35 +40 очень
жарко
1010.1 1001.8
15 22.06 В 4 20 км 9/4 600 м
[Cb cap Ac inh]
+32.1 +10.7 27 +32 +32 жарко 1010.8 1002.4 +37.0
18 22.06 В 1 10 км 9/0
[Ac As]
+28.1 +15.7 47 +31 +31 душно 1011.8 1003.3
21 22.06 штиль 0 10 км ясно +22.8 +16.6 68 +27 +27 душно 1011.6 1002.9
00 23.06 З 2 10 км 3/0
[Ac cast]
+20.6 +15.3 72 +24 +24 комфорт 1010.9 1002.2
03 23.06 З 3 20 км 6/0
[Ci]
+23.7 +15.3 59 +27 +28 жарко 1012.2 1003.5 +19.6
06 23.06 З 2 20 км 3/0
[Cc]
+28.4 +17.1 50 +32 +44 душно 1012.1 1003.6
09 23.06 В 3 20 км 3/0
[Ac lent]
+33.6 +16.6 36 +36 +49 очень
душно
1010.4 1002.1
12 23.06 СВ 5 20 км 3/0
[Ac lent]
+35.7 +15.6 30 +37 +42 душно 1009.1 1000.8
15 23.06 Ю 4 20 км гроза без осадков 9/6 600 м
[Cb calv Ac inh]
+30.6 +16.9 44 +34 +34 очень
душно
1010.4 1002.0 +36.8
18 23.06 В 2
{10}
10 км {гроза} 4/0
[Ac lent]
+27.1 +15.0 48 +30 +30 душно 1010.7 1002.2
21 23.06 штиль 0 10 км ясно +23.8 +16.8 65 +27 +27 жарко 1011.5 1002.9
00 24.06 штиль 0 10 км ясно +20.4 +16.2 77 +23 +23 комфорт 1010.8 1002.1
03 24.06 З 3 20 км 4/0
[Ci fib]
+22.3 +16.2 68 +26 +28 жарко 1010.9 1002.2 +20.2
06 24.06 З 3 20 км 3/0
[Ac lent]
+29.5 +18.4 51 +34 +42 очень
душно
1011.3 1002.8
09 24.06 ЮЗ 4 20 км 8/0
[Ac lent Ci fib]
+33.4 +17.2 38 +37 +45 очень
душно
1010.3 1001.9
12 24.06 З 3 20 км 6/0
[Ac lent Ci fib]
+37.5 +15.6 27 +39 +46 очень
душно
1008.8 1000.5
15 24.06 ЮЗ 3 20 км 8/4 600 м
[Cb cap Ac inh]
+35.1 +16.4 33 +38 +38 очень
душно
1009.3 1001.0 +37.8
18 24.06 Ю 5
{12}
10 км в посл. час гроза {ливн. осадки} 9/4 600 м
[Cb cap Ac inh]
+25.8 +19.2 67 +31 +31 очень
душно
1013.4 1004.8
21 24.06 З 4
{11}
10 км 8/0
[Ac inh]
+24.9 +17.1 62 +29 +29 душно 1011.8 1003.2

 

Местоположение метеостанции Гудермес (Чечня, Россия): широта 43.35 долгота 46.12 высота над уровнем моря 75 м.

В архиве по умолчанию представлена погода в Гудермесе за последнюю неделю. Архивные данные за месяц целиком и за предыдущие месяцы, начиная с января 2011 года, Вы можете получить, выбрав интересующий диапазон дат из раскрывающегося списка и нажав кнопку "Ввод!".


*Определитесь, кто Вы:
робот инопланетянин человек

Внимание! Время в таблицах - всемирное. Для получения местного времени необходимо прибавить поправку, которая равна 3 ч.

Смотрите также архив погоды в соседних городах и на ближайших метеорологических станциях:

Погода в Шелковской (Чечня, Россия) (28 км)
Погода в Грозном (Чечня, Россия) (34 км)
Погода в Хасавюрте (Дагестан, Россия) (39 км)
Погода в Бабаюрте (Дагестан, Россия) (60 км)
Погода в Шатое (Чечня, Россия) (63 км)
Погода в Кизляре (Дагестан, Россия) (72 км)
Погода в Наурской (Чечня, Россия) (73 км)
Погода в Терекли-Мектебе (Дагестан, Россия) (89 км)
Погода в Хунзахе (Дагестан, Россия) (99 км)
Погода в Буйнакске (Дагестан, Россия) (100 км)

Пояснения к столбцам:

Ветер - указаны скорость ветра в м/с - средняя за 10 мин, порывы в срок и между сроками (в фигурных скобках) и направление, откуда дует ветер: С - северный, СВ - северо-восточный, В - восточный, ЮВ - юго-восточный, Ю - южный, ЮЗ - юго-западный, З - западный, СЗ - северо-западный.
Видимость - горизонтальная дальность видимости в метрах или километрах. При видимости от 1 до 10 км при отсутствии осадков обычно наблюдается дымка, при ухудшении видимости до 1 км и менее - туман. В сухую погоду видимость может ухудшаться дымом, пылью или мглою.
Явления - указаны атмосферные явления, наблюдавшиеся в срок или в последний час перед сроком; фигурными скобками обозначены явления, наблюдавшиеся между сроками (за 1-3 часа до срока); квадратными скобками обозначены град или гололедные отложения с указанием их диаметра в мм.
Облачность - указаны через наклонную черту общая и нижняя облачность в баллах и высота нижней границы облаков в метрах; квадратными скобками обозначены формы облаков: Ci - перистые, Cs - перисто-слоистые, Cc - перисто-кучевые, Ac - высококучевые, As - высокослоистые, Sc - слоисто-кучевые, Ns - слоисто-дождевые, Cu - кучевые, Cb - кучево-дождевые. Подробнее классификацию облаков см. в Атласе облаков (PDF).
T - Температура воздуха - температура, измеренная на высоте 2 м над землей.
Td - Температура точки росы - температура, при понижении до которой содержащийся в воздухе водяной пар достигнет насыщения.
f - Относительная влажность воздуха - влажноcть воздуха, измеренная на высоте 2 м над землей.
Te - Эффективная температура - температура, которую ощущает одетый по сезону человек в тени. Характеристика душности погоды. При расчете учитывается влияние влажности воздуха и скорости ветра на теплоощущения человека.
Tes - Эффективная температура на солнце - температура, которую ощущает человек, с поправкой на солнечный нагрев. Характеристика знойности погоды. Зависит от высоты солнца над горизонтом, облачности и скорости ветра. Ночью, в пасмурную погоду, а также при ветре 12 м/с и более поправка равна нулю.
P - Атмосферное давление - приведенное к уровню моря атмосферное давление.
Po - Атмосферное давление - измеренное на уровне метеостанции атмосферное давление.
Tmin - Минимальная температура - минимум температуры воздуха на высоте 2 м над землей.
Tmax - Максимальная температура - максимум температуры воздуха на высоте 2 м над землей.
R - Количество осадков - Количество выпавших осадков за период времени, мм. При наведении курсора мыши на число - период времени, за который выпало указанное количество осадков.
R24 - Количество осадков - Количество выпавших осадков за 24 часа, мм.
S - Снежный покров - Высота снежного покрова, см. При наведении курсора мыши на число - состояние снежного покрова и степень покрытия местности в баллах.